Regional Weather Roundup
Issued by NWS

Home | Current Version | Previous Version | Text Only | Print | Product List | Glossary Off
Versions: 1 2 3 4 5 6 7 8 9 10 11 12 13 14 15 16 17 18 19 20 21 22 23 24 25 26 27 28 29 30 31 32 33 34 35 36 37 38 39 40 41 42 43 44 45 46 47 48 49 50

000
ASUS43 KBIS 221010
RWRND

NORTH DAKOTA REGIONAL WEATHER ROUNDUP
NATIONAL WEATHER SERVICE BISMARCK ND
400 AM CST MON JAN 22 2018

NOTE: "FAIR" INDICATES FEW OR NO CLOUDS BELOW 12,000 FEET WITH NO
SIGNIFICANT WEATHER AND/OR OBSTRUCTIONS TO VISIBILITY.


NDZ001>003-009>011-017-221100-
NORTHWEST NORTH DAKOTA

CITY           SKY/WX    TMP DP  RH WIND       PRES   REMARKS
WILLISTON      CLEAR      6   4  91 CALM      30.00S
MINOT          FOG        7   4  87 CALM      30.00S VSB 1/4
MINOT AFB      FOG        7   3  85 CALM      30.01R VSB 3/8
$$

NDZ018>021-031>035-040>046-221100-
SOUTHWEST NORTH DAKOTA

CITY           SKY/WX    TMP DP  RH WIND       PRES   REMARKS
BISMARCK       FOG       19  17  92 NW5       30.02S VSB 1/2 WCI  12
DICKINSON      CLEAR     16  11  80 W8        29.95S WCI   5
GARRISON         N/A      5   2  87 CALM      30.00S
HETTINGER ARPT CLEAR     14  10  84 NW5       29.99F WCI   6
$$

NDZ004>008-012>016-024-026-027-054-221100-
NORTHEAST NORTH DAKOTA

CITY           SKY/WX    TMP DP  RH WIND       PRES   REMARKS
GRAND FORKS    CLOUDY    23  21  92 N8        30.08F WCI  14
GRND FRKS AFB  CLOUDY   N/A N/A N/A NE8       30.09F
DEVILS LAKE    CLOUDY    22  21  96 NE3       30.06S FOG
$$

NDZ022-023-025-028>030-036>039-047>053-221100-
SOUTHEAST NORTH DAKOTA

CITY           SKY/WX    TMP DP  RH WIND       PRES   REMARKS
FARGO          CLOUDY    25  24  96 NE14      30.06R WCI  13
JAMESTOWN      CLOUDY    23  21  92 NE12      30.02S WCI  12
$$





USA.gov is the U.S. government's official web portal to all federal, state and local government web resources and services.